Location: Pradons
(44.4746°N, 4.3578°E)
Time: 16:01:07
(UTC+00:00)

Cosmos 2369 Rocket - Pass Details

Date: 09 April 2020
Orbit: 829 x 852 km, 71.0° (Epoch: 04 June)

Event Time Altitude Azimuth Distance (km) Brightness Sun altitude
Rises 18:41:59 0° 330° (NNW) 3,420 6.1 -4.6°
Reaches altitude 10° 18:44:30 10° 326° (NW) 2,478 5.5 -5.0°
Maximum altitude 18:50:00 53° 251° (WSW) 1,026 3.1 -6.0°
Drops below altitude 10° 18:55:27 10° 176° (S) 2,446 4.4 -6.9°
Sets 18:57:55 0° 171° (S) 3,373 5.1 -7.3°
